Regional Weather Roundup
Issued by NWS Cleveland, OH

Home | Current Version | Previous Version | Graphics & Text | Print | Product List | Glossary On
Versions: 1 2 3 4 5 6 7 8 9 10 11 12 13 14 15 16 17 18 19 20 21 22 23 24 25 26 27 28 29 30 31 32 33 34 35 36 37 38 39 40 41 42 43 44 45 46 47 48 49 50
000
ASUS41 KCLE 220810
RWRCLE
OHIO REGIONAL WEATHER ROUNDUP
NATIONAL WEATHER SERVICE WILMINGTON, OH
400 AM EDT SUN APR 22 2018

NOTE: "FAIR" INDICATES FEW OR NO CLOUDS BELOW 12,000 FEET WITH NO
SIGNIFICANT WEATHER AND/OR OBSTRUCTIONS TO VISIBILITY.

OHZ001>008-015>018-024>027-034-035-043-044-220900-
   NORTHWEST OHIO

CITY           SKY/WX    TMP DP  RH WIND       PRES   REMARKS
DEFIANCE       FAIR      39  26  59 NE5       30.36F
FINDLAY        FAIR      42  21  43 NE6       30.33F
TOLEDO EXPRESS FAIR      42  20  41 NE6       30.36F
TOLEDO EXEC    FAIR      38  30  73 N3        30.38F
LIMA           FAIR      40  26  57 NE6       30.33F
$$

OHZ009>014-019>023-028>033-038-089-220900-
   NORTHEAST OHIO

CITY           SKY/WX    TMP DP  RH WIND       PRES   REMARKS
CLE-HOPKINS    MOCLDY    38  33  82 N5        30.39S
CLE-LAKEFRONT  FAIR      40  34  79 NE3       30.37F
CUY CO. ARPT   NOT AVBL
LORAIN-ELYRIA  FAIR      36  29  75 NE10      30.36F
ASHTABULA      FAIR      30  28  92 E3        30.38F
AKRON-CANTON   CLOUDY    43  25  49 NE10      30.34F
WOOSTER        FAIR      41  29  62 NE7       30.34F
MANSFIELD      FAIR      42  25  50 NE6       30.34S
YOUNGSTOWN     FAIR      39  23  52 E7        30.36R
$$

OHZ042-051>053-060>062-070>072-077>081-220900-
  SOUTHWEST OHIO

CITY           SKY/WX    TMP DP  RH WIND       PRES   REMARKS
CINC-COVINGTON CLOUDY    50  26  39 E12       30.26F
CINC-LUNKEN    FAIR      45  40  82 CALM      30.29F
HAMILTON       FAIR      47  27  45 NE3       30.30F
DAYTON         CLOUDY    42  27  55 NE7       30.31F
WRIGHT-PAT AFB CLOUDY    45  27  48 NE6       30.31F
DAYTON GENERAL FAIR      45  26  47 NE9       30.29F
WILMINGTON     FAIR      43  31  62 NE7       30.29F
$$

OHZ036-037-039>041-045>050-054>059-063>069-073>076-082>088-220900-
  CENTRAL AND SOUTHEAST OHIO

CITY           SKY/WX    TMP DP  RH WIND       PRES   REMARKS
COLUMBUS       CLOUDY    46  26  45 NE6       30.32S
OSU AIRPORT    FAIR      42  29  59 NE6       30.32S
BOLTON FIELD   MOCLDY    42  30  62 NE6       30.32F
RICKENBACK AFB CLOUDY    44  28  52 NE7       30.31S
NEWARK         FAIR      45  27  49 N5        30.32S
MARION         FAIR      38  30  73 NE5       30.33F
LANCASTER      CLOUDY    45  31  58 NE6       30.32S
ZANESVILLE     FAIR      44  27  51 N3        30.32S
NEW PHILLY     FAIR      46  30  53 CALM      30.33F
$$




USA.gov is the U.S. government's official web portal to all federal, state and local government web resources and services.